Dewpoint
33 32 32 34 35 35 37 36 34 32 38 42 45 48 50 52 52 55 59 55 54 54 55 56 57 57 57 58 58 59 59 59 59 59 59 59 59 59
33 31 31 33 34 35 36 36 36 35 35 41 43 46 49 50 51 57 61 55 53 53 53 54 55 56 56 56 56 56 57 58 58 58 58 59 57 59
31 30 30 32 33 35 35 35 34 36 35 40 44 46 48 47 49 62 60 60 56 52 52 52 52 52 53 53 53 54 55 55 56 57 57 58 58 58
30 29 30 32 33 34 33 33 33 36 36 39 42 44 46 45 50 59 60 61 60 52 52 51 50 50 50 51 51 52 52 52 53 53 54 55 57 57
30 29 30 32 32 34 34 33 33 35 37 39 39 41 44 43 46 51 59 60 60 51 50 50 50 50 50 50 50 50 50 50 50 50 50 51 53 54
29 29 31 32 33 34 33 32 33 34 35 36 37 37 38 41 43 45 50 53 59 56 53 52 51 50 49 49 49 49 50 50 50 49 48 48 48 50
27 27 30 33 33 34 34 32 32 32 33 33 33 34 34 35 36 40 45 48 53 57 56 56 54 54 53 49 51 50 49 49 49 49 48 47 46 47
25 26 27 32 31 33 35 35 34 31 32 32 32 31 32 33 35 38 42 46 52 46 54 55 57 56 56 55 51 48 48 48 48 48 48 47 46 45
25 25 26 28 32 31 32 34 34 34 31 34 32 32 32 33 35 37 41 44 43 41 44 55 57 56 58 56 48 46 46 46 47 47 46 46 45 44
25 26 26 27 31 30 29 30 32 34 34 34 34 34 34 35 36 39 40 42 44 40 39 52 57 57 58 59 47 47 46 46 46 46 46 45 44 44
25 26 26 26 29 30 28 28 28 31 33 35 36 35 35 35 35 37 37 41 38 38 36 39 41 45 54 58 55 47 46 45 45 46 46 45 44 44
25 25 28 27 28 29 27 27 27 29 31 31 32 33 35 35 35 35 35 34 35 34 36 36 36 39 45 44 54 53 52 44 45 45 46 45 45 52
25 25 26 27 28 28 27 27 28 28 29 30 30 31 32 34 35 35 35 33 34 33 36 38 36 35 38 41 41 43 43 43 49 47 45 44 44 48
25 26 26 27 26 27 26 27 27 27 27 27 28 29 30 31 33 35 35 35 35 35 37 38 36 37 39 38 37 37 40 39 41 42 45 46 43 42
26 26 26 25 25 24 26 26 25 25 26 25 25 26 29 30 32 33 33 34 35 35 35 36 36 36 36 35 34 34 35 36 38 39 41 41 42 45
24 24 23 23 23 23 23 24 25 25 25 25 25 26 27 27 28 30 30 31 31 32 35 35 36 35 33 33 34 33 34 33 35 37 39 39 39 39
22 22 21 21 21 21 21 22 23 23 24 25 24 24 24 24 24 26 26 28 27 29 30 34 36 36 35 34 32 33 32 33 34 35 36 36 36 37
20 20 20 20 20 20 20 20 22 22 22 23 24 23 22 22 22 22 24 25 25 25 26 28 32 33 33 34 34 32 32 32 34 34 34 33 34 36
19 19 19 20 20 20 19 20 20 21 21 22 22 22 22 21 21 20 21 22 22 23 24 25 26 28 28 28 31 31 29 30 32 34 34 32 32 34
18 19 19 19 19 19 20 19 19 21 20 20 21 22 21 21 20 19 19 20 21 21 21 22 23 24 25 27 27 24 28 25 28 32 31 34 34 34
18 18 19 19 19 19 19 20 19 19 19 19 20 20 21 20 19 19 18 18 19 20 19 20 22 25 25 25 21 21 22 25 27 26 24 31 28 31
19 19 19 19 19 19 19 18 18 17 18 19 19 19 19 19 19 18 19 17 17 19 19 20 21 21 21 17 17 19 20 21 23 24 25 24 27 22
20 19 19 20 20 19 18 17 16 14 17 18 19 18 15 18 19 18 18 17 16 17 18 17 17 18 18 17 16 16 17 18 19 18 20 22 24 24
Lifted_Index
13 12 12 12 13 14 13 11 8 6 5 5 5 6 6 6 5 4 3 1 -1 -1 -1 0 1 1 1 2 2 2 2 3 3 3 4 4 4 5
13 13 12 12 13 13 13 11 9 7 6 6 6 6 6 5 4 3 2 0 -1 -2 -1 -0 1 1 1 2 2 2 2 2 3 3 4 4 5 5
14 13 13 12 12 13 13 12 10 8 7 6 6 6 6 5 3 1 1 0 -1 -2 -1 -0 0 1 1 1 1 1 2 2 2 3 4 4 5 5
14 13 13 13 13 13 12 12 11 9 8 7 6 6 6 4 3 1 0 0 -0 -1 -1 -1 -0 0 1 1 1 1 1 1 2 3 4 4 5 5
14 14 14 14 13 13 12 12 11 9 8 6 6 5 5 4 3 2 1 1 0 -0 -1 -1 -0 0 0 1 1 1 1 1 1 2 3 4 5 5
14 15 15 15 15 14 13 12 11 9 8 6 5 5 5 4 3 3 2 2 1 1 -0 -1 -1 -0 0 1 1 1 1 1 1 2 2 3 4 4
14 14 15 16 16 15 14 13 12 10 8 7 6 5 5 4 4 4 4 3 3 2 1 0 -0 0 0 1 1 1 1 1 1 1 2 3 3 4
13 14 15 16 16 16 16 15 14 12 10 8 6 5 5 5 4 4 4 4 4 3 2 1 1 1 1 1 1 1 1 1 1 1 1 2 2 3
14 14 14 15 16 16 16 15 15 14 13 11 8 7 7 6 6 5 4 4 4 3 2 1 1 1 1 1 1 0 0 0 0 0 1 1 2 2
15 15 14 14 15 15 15 15 15 16 16 14 12 10 9 8 7 6 5 4 4 3 3 2 2 2 2 1 1 0 0 0 0 0 0 1 1 1
16 16 15 15 15 15 15 14 15 16 17 16 14 13 11 10 9 7 6 5 4 4 4 3 3 2 2 1 1 0 0 0 0 -0 -0 0 0 1
17 16 16 15 15 15 15 15 15 16 16 15 14 13 12 11 10 9 8 6 5 5 5 4 3 2 2 1 1 1 0 1 1 0 0 -0 0 0
17 17 17 16 16 16 16 16 16 16 15 14 13 13 12 12 12 12 11 9 8 8 7 6 4 3 2 2 1 1 1 1 1 1 0 0 0 1
18 19 18 17 16 16 16 16 16 16 16 14 14 13 13 14 14 14 14 13 12 11 10 9 7 5 3 3 2 2 2 2 2 2 1 1 1 1
19 20 19 19 18 17 17 17 17 17 16 15 15 15 16 16 16 15 15 14 13 13 13 12 10 8 6 5 4 4 4 5 5 4 3 3 2 2
19 19 19 19 19 18 18 18 18 17 17 17 17 17 17 17 17 16 16 15 13 13 14 15 14 12 10 8 8 8 8 8 8 8 7 6 6 5
19 19 18 18 18 18 18 19 19 18 18 18 19 18 18 18 18 18 17 16 14 14 15 16 16 15 14 13 12 11 11 11 11 11 10 9 9 9
18 18 18 18 18 19 19 19 19 19 19 19 19 19 19 19 19 20 19 19 17 17 17 18 17 16 15 15 16 16 14 14 14 14 12 11 11 11
18 18 18 18 19 19 19 20 20 20 20 20 20 20 20 20 20 20 21 21 20 20 20 20 20 18 15 16 18 20 19 17 17 16 15 14 14 15
18 19 19 19 20 20 20 20 21 21 21 21 21 21 21 21 20 21 21 21 22 22 22 23 23 22 20 19 20 22 23 21 20 18 17 17 17 18
19 19 20 20 20 21 21 21 21 21 21 22 22 22 22 22 21 21 22 22 22 22 23 24 25 25 24 23 23 23 25 24 23 22 21 20 19 18
20 20 20 21 21 21 21 21 21 21 21 22 22 22 23 23 22 22 22 22 22 22 23 23 24 25 24 24 23 24 25 25 25 24 24 24 22 21
20 20 21 21 21 22 22 22 22 21 22 22 22 22 22 22 23 23 23 23 23 23 23 23 24 24 24 23 23 23 24 25 26 26 26 26 26 25